Погода в Одессе

Украина / Одесская область     46°29′03″N   30°43′54″E
темп.,
°C
ветер,
м/с
пор.,
м/с
влажн.,
%
обл.,
%
осадки,
мм/ч
давл.,
гПа
погр.,
м
5 марта, пт
пт523:00+7юз588048 0.0 1013160
02:00+6юз458071 0.0 101280
05:00+5сз227867 0.0 101222
08:00+6ссв477934 0.0 1011184
11:00+8всв456782 0.0 1012249
14:00+8юв236988 0.0 1011219
17:00+8ююв2370100 0.0 101097
20:00+7ююз577194 0.0 1011135
6 марта, сб
сб623:00+8з61162100 0.0 1012234
02:00+6ссз81181100 0.0 1015526
05:00+3с91277100 0.0 1018748
08:00+1с81271100 0.0 1022794
11:00+3с7948100 0.0 10241059
14:00+4ссз7944100 0.0 10241275
17:00+4с573922 0.0 10261261
20:00+2ссв244111 0.0 1028431
7 марта, вс
вс723:00+2юз23420 0.0 1029136
02:00+1з57522 0.0 1030281
05:000зсз47620 0.0 1029347
08:000зсз47530 0.0 1029597
11:00+3з57390 0.0 10271094
14:00+5зюз68440 0.0 1024907
17:00+6зюз69470 0.0 1021813
20:00+4юз510560 0.0 1021303
8 марта, пн
пн823:00+3юз7126341 0.0 1020372
02:00+2зюз6106854 0.0 1018281
05:00+1зюз587340 0.0 1017239
08:00+2з347120 0.0 1018132
11:00+5юз01510 0.0 1017503
14:00+6ю435025 0.0 1016888
17:00+5ююз565899 0.0 1015339
20:00+4ююз356682 0.0 1015107
9 марта, вт
вт923:00+4юз12710 0.0 101523
02:00+3ссз23670 0.0 101531
05:00+2с59690 0.0 1016294
08:00+1с69790 0.0 1018504
11:00+4с57500 0.0 1019863
14:00+5с67430 0.0 1019970
17:00+4с56460 0.0 10201144
20:00+2ссв68554 0.0 1022823